Theta_e
349 346 345 345 351 353 352 345 339 334 335 333 333 337 348 349 350 350 349 351 347 350 350 351 350 350 351 349 345 342 344 342 342 343 341 345 341 336 343 347 349 347 349
347 348 345 347 347 352 352 343 340 336 340 339 338 348 348 350 352 351 351 352 352 351 350 351 351 351 350 347 349 344 346 342 342 345 345 346 345 345 348 351 345 351 348
350 348 347 348 348 351 348 344 340 337 342 342 340 345 344 347 346 350 350 350 351 350 350 351 351 351 350 347 348 347 343 346 346 345 344 342 345 346 347 351 347 349 343
349 347 349 350 349 346 348 343 342 343 346 345 343 342 341 341 347 350 351 351 352 352 351 351 351 352 351 346 348 348 345 343 351 347 333 340 339 346 347 347 348 351 349
350 348 349 350 348 343 342 342 341 346 347 345 343 340 342 344 347 349 351 351 352 352 351 352 351 353 349 345 344 347 347 344 349 349 331 336 340 343 347 346 348 347 347
354 349 349 349 348 347 345 344 343 344 344 342 342 343 345 347 343 348 348 351 347 352 346 351 353 352 347 345 344 344 342 343 347 346 344 341 341 340 344 350 351 349 343
354 348 349 349 347 347 346 346 348 348 348 348 346 346 348 347 347 349 349 350 346 351 347 350 351 352 348 345 346 344 341 341 347 346 342 340 334 341 343 347 344 346 341
353 346 348 348 348 346 346 347 348 350 351 351 348 348 347 347 350 345 343 344 345 347 348 346 349 347 344 343 342 343 340 342 348 348 346 344 341 340 343 346 342 343 343
352 343 344 350 352 351 352 352 350 351 353 351 351 353 349 348 345 343 345 344 344 345 345 339 339 340 344 345 344 341 341 341 341 346 347 346 343 344 343 342 345 343 343
351 345 337 339 341 344 346 341 341 342 347 352 350 347 352 347 345 345 344 340 339 337 340 344 348 348 345 345 344 343 341 340 339 346 347 347 346 343 343 341 342 342 344
349 342 338 338 338 336 336 340 345 346 345 345 346 348 350 346 344 341 343 344 344 342 343 345 342 343 345 344 345 346 341 340 348 349 348 349 345 342 340 342 339 343 344
350 348 347 346 345 349 350 346 346 347 345 343 339 344 343 347 351 350 351 350 349 341 341 342 343 345 347 345 346 344 346 348 349 350 347 349 345 339 340 342 341 342 343
349 349 350 350 349 351 354 352 347 346 344 344 349 350 350 351 352 351 353 351 349 346 339 339 348 349 350 351 348 347 349 348 349 349 348 347 344 338 339 340 341 340 341
347 349 351 350 351 349 350 352 351 352 351 350 350 350 351 352 351 351 353 353 351 346 348 350 350 345 347 348 349 349 349 350 350 349 348 346 343 338 337 336 340 340 340
344 349 351 351 349 349 349 350 353 353 352 351 351 350 350 349 353 351 352 353 353 351 350 352 352 352 351 350 342 350 349 351 350 349 347 346 344 341 339 336 336 342 342
344 344 347 351 350 351 350 351 351 348 350 350 351 350 347 344 350 354 353 351 353 352 350 351 353 351 340 352 350 343 349 351 350 349 348 346 346 344 340 340 337 338 340
345 344 345 346 347 347 347 348 348 347 348 351 352 352 348 348 350 351 349 350 349 349 348 352 352 350 347 344 350 349 348 350 350 348 350 349 347 346 345 340 338 338 340
345 345 345 345 345 346 349 348 349 346 347 350 348 348 350 349 348 349 349 349 349 350 350 351 350 349 349 351 352 349 340 350 347 348 349 348 350 349 348 345 342 340 339
345 345 346 346 347 347 347 349 349 347 348 348 348 347 347 351 351 349 347 347 347 349 348 351 351 350 352 354 351 348 349 343 344 346 347 349 348 350 348 348 346 342 339
347 345 346 345 347 347 349 350 350 348 351 350 347 347 347 348 350 350 349 348 352 351 348 345 349 351 355 352 351 352 349 346 345 342 344 343 343 350 350 350 349 346 345
348 348 349 348 349 348 350 351 351 351 350 349 348 347 346 347 348 348 349 349 347 349 349 349 351 354 354 352 349 350 347 347 345 341 337 344 348 334 346 349 348 350 347
348 346 347 349 347 351 351 352 352 352 352 351 350 350 349 348 348 348 348 348 349 349 349 346 347 351 352 353 351 350 347 347 346 346 346 344 342 338 349 347 348 351 349
347 348 347 348 350 351 353 354 355 355 354 353 352 351 351 350 346 345 346 347 348 348 348 348 347 346 350 353 352 350 346 346 345 348 347 347 344 344 345 343 346 350 348
351 349 351 351 351 353 352 354 354 355 355 354 353 353 354 352 351 345 345 346 347 350 348 345 346 350 351 352 352 351 350 348 345 343 348 347 347 345 342 340 337 344 342
350 354 352 353 354 355 357 355 356 358 356 355 356 355 354 355 351 351 350 347 347 347 347 348 346 345 349 352 353 351 350 347 349 346 347 345 345 342 341 337 337 340 343
351 353 355 356 354 356 357 358 357 357 359 360 359 358 365 362 353 352 351 352 351 350 350 350 349 348 347 348 350 351 350 348 347 346 343 342 343 343 337 343 337 345 344
Wind_Speed
27 26 23 21 19 18 18 20 21 22 20 20 18 16 17 16 15 14 13 12 13 13 10 9 9 10 9 9 12 18 15 13 13 12 13 12 13 15 17 15 14 14 15
33 28 25 22 21 19 18 19 19 19 17 16 15 13 13 14 13 12 13 13 13 12 9 9 9 9 8 8 7 9 13 15 16 16 17 13 12 13 14 13 13 14 15
32 28 24 21 21 20 18 18 18 17 15 14 13 12 12 10 9 9 9 10 11 9 8 8 8 8 7 6 8 7 7 10 12 14 16 15 13 10 6 14 12 14 15
32 29 24 21 23 21 19 17 16 15 14 13 11 10 8 7 7 7 7 7 8 7 6 6 7 6 5 5 7 6 7 9 11 12 10 12 13 10 9 13 14 14 15
30 27 24 22 23 21 19 17 15 14 13 12 10 9 7 6 7 7 6 6 5 5 4 5 6 7 6 5 6 7 7 7 10 9 7 16 13 13 10 12 14 13 12
29 25 25 23 22 20 18 17 15 14 13 11 9 8 7 7 6 6 6 5 5 5 4 4 4 5 5 6 5 7 7 8 8 5 4 10 13 14 14 12 13 14 11
30 25 24 22 20 19 19 17 15 14 12 11 10 8 7 6 5 6 6 6 7 6 5 6 6 5 5 5 6 5 5 6 9 14 14 18 28 14 12 16 14 14 12
32 28 24 21 19 19 18 17 15 13 12 11 9 7 6 6 7 6 7 6 6 7 7 8 7 6 5 5 4 3 4 8 5 10 11 15 22 24 18 17 14 13 11
32 31 27 22 18 17 16 16 14 13 12 11 10 9 7 8 7 7 6 6 7 8 7 7 7 6 4 4 3 3 4 3 2 4 9 15 24 21 21 16 15 14 13
30 31 30 26 23 21 19 17 16 14 12 12 11 11 10 8 8 8 8 8 8 7 8 8 6 4 4 4 4 5 5 6 6 7 12 20 20 18 18 17 16 17 16
30 29 28 27 25 22 19 18 17 16 15 14 13 12 12 11 10 10 11 10 8 7 8 8 6 4 3 6 5 7 6 7 6 4 10 14 17 14 18 19 18 17 17
32 31 29 25 24 23 20 20 20 18 17 16 14 14 13 11 12 12 13 13 11 9 7 7 5 5 5 5 7 8 5 6 9 11 13 19 18 16 20 21 20 19 18
34 33 33 27 26 28 26 23 20 19 18 17 16 12 11 13 14 18 17 16 16 12 10 11 9 6 5 3 2 4 5 8 9 9 17 21 19 17 19 20 20 20 19
28 31 36 31 28 29 28 26 22 22 21 20 19 15 14 14 18 15 19 21 15 14 11 11 13 7 2 4 7 9 10 12 13 15 20 20 17 18 17 18 19 19 19
17 30 32 32 27 29 27 25 23 25 23 24 22 19 18 18 16 16 22 22 18 14 13 13 15 13 5 10 5 5 10 15 8 17 24 18 15 15 16 17 19 19 20
26 19 23 31 28 21 22 22 20 16 9 26 25 19 19 17 12 10 11 10 14 13 14 16 15 11 10 11 8 2 13 8 6 15 16 15 13 12 15 17 18 19 20
29 25 23 28 22 18 15 14 14 16 7 15 22 18 18 18 15 12 12 8 10 10 13 12 16 14 15 14 15 22 14 14 7 7 14 15 13 14 15 18 19 19 20
23 25 23 21 19 18 16 16 15 16 15 7 13 14 19 20 18 18 18 17 14 16 18 20 18 19 18 18 21 20 14 17 13 9 9 6 17 15 18 19 21 22 21
23 26 25 22 23 20 20 20 18 19 18 17 13 16 18 22 22 19 20 20 21 20 19 17 21 20 23 14 18 24 19 16 13 14 15 15 10 19 21 20 20 21 22
24 28 25 23 24 23 20 21 19 20 20 18 21 18 20 25 27 24 20 22 20 20 21 21 20 15 8 4 10 16 19 19 16 10 22 21 23 14 16 22 23 23 21
26 29 27 27 22 29 27 26 23 24 21 21 21 21 23 23 30 28 25 23 23 27 25 21 19 17 15 9 9 7 17 19 20 19 16 15 21 18 17 21 20 29 22
30 31 29 27 27 29 30 29 26 26 26 25 25 25 24 26 24 28 28 27 25 24 26 28 28 24 22 15 7 4 2 7 21 23 26 20 17 16 22 17 18 19 16
33 35 35 34 33 32 31 27 24 22 24 26 29 31 30 29 29 28 28 28 28 28 29 28 29 30 22 22 21 9 1 4 4 10 19 25 26 26 26 22 15 21 22
35 40 39 39 39 39 37 34 32 28 25 29 26 23 22 25 28 32 31 30 30 30 32 31 31 28 29 24 21 25 27 18 4 2 8 18 26 28 24 26 19 16 13
33 39 44 44 43 41 39 39 35 31 32 27 26 27 26 27 28 28 32 36 35 36 35 35 36 34 27 30 26 20 26 25 26 8 5 5 15 26 25 22 19 16 17
33 35 39 44 47 45 41 41 39 35 32 28 28 24 12 13 27 28 31 35 37 39 39 38 38 38 38 34 30 29 27 12 14 10 4 6 13 24 23 23 18 20 18
Wind_Direction
156 153 151 144 143 142 137 135 130 125 126 125 122 115 109 107 106 103 105 110 116 117 112 104 107 107 103 101 111 124 134 136 140 141 147 156 164 150 145 138 131 124 116
153 152 151 148 150 149 147 138 135 133 131 129 126 122 116 115 111 107 108 109 113 121 114 111 108 106 111 121 116 121 130 136 142 143 143 144 148 151 159 147 138 122 122
149 150 150 150 154 154 147 144 141 142 139 138 134 127 123 129 124 117 114 114 115 121 119 113 110 112 117 121 131 138 134 134 140 147 148 144 143 145 176 152 142 133 116
148 148 147 147 152 154 152 150 152 151 152 148 148 142 139 149 150 139 133 123 119 123 124 124 127 126 123 123 127 138 136 152 150 156 157 158 158 139 147 145 140 133 128
143 150 146 146 152 153 153 156 154 157 158 156 156 151 153 154 153 146 144 142 137 136 136 143 142 142 137 135 132 137 136 157 157 197 171 152 161 154 150 154 146 134 136
142 152 149 148 151 155 159 159 158 163 166 161 165 164 170 164 168 161 171 166 165 165 162 153 154 150 144 142 142 135 142 137 137 173 316 260 158 157 165 174 160 150 154
152 150 151 152 151 153 156 159 166 172 171 174 172 174 176 174 181 194 198 195 186 178 169 168 175 164 156 168 167 148 143 145 130 149 154 205 204 203 174 179 173 163 158
153 153 154 155 157 156 154 159 165 168 171 175 179 180 185 190 204 206 193 192 186 169 173 172 176 179 171 178 192 179 153 168 163 139 169 169 189 195 186 188 175 174 168
156 155 157 156 157 159 162 164 169 173 180 185 187 191 196 207 201 187 177 175 165 169 182 183 175 173 182 195 203 243 232 219 181 75 179 168 164 172 190 185 182 181 177
155 160 159 163 165 168 172 175 179 183 186 190 194 195 204 206 203 196 186 160 166 180 179 183 185 191 210 242 236 228 242 245 207 152 175 174 176 182 188 187 188 183 181
153 162 167 168 171 172 176 180 182 189 192 195 195 200 205 207 202 198 195 176 183 193 195 194 193 196 228 235 291 265 222 221 198 194 175 199 187 188 184 182 184 185 187
160 166 169 169 171 174 179 186 191 195 197 194 193 195 200 196 214 215 211 207 212 207 208 197 182 213 250 252 305 223 207 181 208 213 227 190 192 192 185 186 188 189 191
167 168 174 175 175 183 187 196 192 197 196 193 186 189 204 209 226 227 226 216 216 220 214 208 205 204 245 250 299 203 242 239 239 224 197 192 195 193 192 197 196 194 191
166 173 172 176 182 188 189 202 199 198 201 195 193 198 201 220 219 212 224 221 217 215 210 216 227 154 5 176 253 247 271 278 262 223 190 189 194 195 196 203 202 201 199
175 177 173 181 182 190 195 195 203 205 209 209 198 200 206 210 218 231 230 232 215 216 219 221 216 211 215 197 35 285 256 275 261 201 198 189 192 203 207 206 207 207 206
171 184 165 179 192 182 193 197 197 186 242 208 201 208 211 196 214 268 204 201 207 229 231 218 202 221 265 224 205 94 256 260 286 194 212 202 202 212 215 214 211 211 211
175 174 179 168 161 168 179 181 191 210 225 189 198 210 205 203 209 229 233 227 239 235 250 229 217 242 237 221 223 230 203 221 205 138 200 204 211 232 238 225 221 218 218
166 172 168 178 188 200 195 206 210 216 214 232 218 208 207 207 215 228 231 233 238 246 255 235 240 247 251 232 205 206 218 212 204 201 186 185 234 242 239 238 236 233 230
177 174 174 181 188 194 206 214 218 215 220 241 230 232 222 217 216 224 228 231 238 246 261 265 244 245 254 243 234 208 203 206 255 217 224 218 238 251 243 243 233 233 233
179 176 181 182 192 196 200 205 215 217 222 236 235 234 234 233 227 226 229 227 231 246 257 262 264 266 247 215 173 204 217 231 215 229 235 245 233 229 258 240 236 227 224
176 176 180 183 190 195 194 198 205 215 222 229 232 233 239 250 232 229 230 230 231 238 247 252 261 262 258 246 256 215 219 226 227 231 235 218 206 277 232 238 240 245 229
179 183 186 189 194 198 202 206 207 215 226 232 234 234 235 243 237 231 232 235 238 238 247 252 254 259 264 259 223 235 205 240 238 246 252 233 223 211 223 222 218 220 213
186 190 192 196 200 203 204 206 208 219 226 233 239 240 242 237 234 234 237 240 242 242 246 252 253 254 251 249 239 217 337 230 193 230 245 239 226 227 235 225 222 211 217
192 196 200 203 204 208 209 207 210 217 224 235 243 247 245 239 236 235 236 238 241 243 242 250 253 255 255 245 238 236 240 251 206 257 207 222 225 232 231 242 240 222 228
194 194 201 207 209 211 211 210 210 218 227 234 239 243 245 247 242 237 240 239 239 242 245 244 247 251 254 250 240 237 239 242 245 220 254 209 206 220 237 239 242 227 236
202 196 197 204 209 211 214 213 215 218 225 231 243 252 239 251 244 245 246 245 244 244 246 249 250 252 254 251 251 246 241 226 222 205 209 222 232 253 265 250 231 209 206